Weather History for LGAL - December, 2013

Change the Weather History Date:

Wednesday, December 11, 2013

  Actual Average Record
Temperature  
Mean Temperature 34 °F -  
Max Temperature 40 °F 50 °F 60 °F (2007)
Min Temperature 28 °F 37 °F 19 °F (2002)
Degree Days  
Heating Degree Days 31    
Moisture  
Dew Point 18 °F    
Average Humidity 52    
Maximum Humidity 69    
Minimum Humidity 22    
Precipitation  
Precipitation 0.00 in 0.10 in - ()
Sea Level Pressure  
Sea Level Pressure 30.58 in    
Wind  
Wind Speed 8 mph ()    
Max Wind Speed 17 mph    
Max Gust Speed -    
Visibility 6.3 miles    
Events      
Averages and records for this station are not official NWS values.
T = Trace of Precipitation, MM = Missing Value Source: Averaged Metar Reports

Daily Weather History Graph

Daily Weather History Graph

Search for Another Location

Airport or City:

Trip Planner

Search our weather history database for the weather conditions in past years. The results will help you decide how hot, cold, wet, or windy it might be!

Date:

Astronomy

Dec. 11, 2013 Rise Set
Actual Time 7:30 AM EET 4:48 PM EET
Civil Twilight 6:59 AM EET 5:19 PM EET
Nautical Twilight 6:25 AM EET 5:53 PM EET
Astronomical Twilight 5:51 AM EET 6:27 PM EET
Moon 1:13 PM EET (12/11) 1:29 AM EET (12/11)
Length of Visible Light 10h 19m
Length of Day
9h 17m
Waxing Gibbous, 69% of the Moon is Illuminated
Dec 11
Waxing Gibbous
Dec 17
Full
Dec 25
Last Quarter
Jan 1
New
Jan 8
First Quarter

Hourly Weather History & Observations

Time (EET) Temp. Windchill Dew Point Humidity Pressure Visibility Wind Dir Wind Speed Gust Speed Precip Events Conditions
5:50 AM 30.2 °F 24.3 °F 21.2 °F 69% 30.60 in - NNE 5.8 mph - N/A   Clear
6:20 AM 30.2 °F 23.4 °F 21.2 °F 69% 30.60 in - NE 6.9 mph - N/A   Clear
6:50 AM 28.4 °F 21.2 °F 19.4 °F 69% 30.60 in 6.2 mi NNE 6.9 mph - N/A   Partly Cloudy
7:20 AM 28.4 °F 20.4 °F 19.4 °F 69% 30.60 in 6.2 mi NNE 8.1 mph - N/A   Partly Cloudy
7:50 AM 28.4 °F 20.4 °F 19.4 °F 69% 30.60 in 6.2 mi NNE 8.1 mph - N/A   Partly Cloudy
8:00 AM 29 °F - 19 °F 55% 30.62 in 9 mi NNE 8.1 mph - -   Partly Cloudy
8:20 AM 28.4 °F 20.4 °F 19.4 °F 69% 30.60 in 6.2 mi NNE 8.1 mph - N/A   Partly Cloudy
8:50 AM 32.0 °F 25.6 °F 19.4 °F 60% 30.60 in 6.2 mi NNE 6.9 mph - N/A   Partly Cloudy
9:20 AM 33.8 °F 27.7 °F 21.2 °F 60% 30.60 in 6.2 mi NNE 6.9 mph - N/A   Partly Cloudy
9:50 AM 35.6 °F 29.2 °F 23.0 °F 60% 30.63 in 6.2 mi NE 8.1 mph - N/A   Partly Cloudy
10:20 AM 37.4 °F 31.4 °F 23.0 °F 56% 30.63 in 6.2 mi NE 8.1 mph - N/A   Partly Cloudy
10:50 AM 37.4 °F 30.8 °F 19.4 °F 48% 30.66 in 6.2 mi NE 9.2 mph - N/A   Partly Cloudy
11:20 AM 37.4 °F 30.8 °F 19.4 °F 48% 30.66 in 6.2 mi ENE 9.2 mph - N/A   Partly Cloudy
11:50 AM 37.4 °F 32.1 °F 21.2 °F 52% 30.66 in 6.2 mi NE 6.9 mph - N/A   Partly Cloudy
12:20 PM 37.4 °F 30.8 °F 21.2 °F 52% 30.63 in 6.2 mi ENE 9.2 mph - N/A   Partly Cloudy
12:50 PM 39.2 °F 31.2 °F 15.8 °F 39% 30.60 in 6.2 mi NE 13.8 mph - N/A   Partly Cloudy
1:20 PM 39.2 °F 30.2 °F 15.8 °F 39% 30.60 in 6.2 mi NNE 17.3 mph - N/A   Partly Cloudy
1:50 PM 39.2 °F 31.2 °F 14.0 °F 36% 30.60 in 6.2 mi NNE 13.8 mph - N/A   Partly Cloudy
2:00 PM 39 °F - 14 °F 22% 30.60 in 6 mi NNE 13.8 mph - -   Scattered Clouds
2:20 PM 39.2 °F 30.2 °F 14.0 °F 36% 30.60 in 6.2 mi NNE 17.3 mph - N/A   Partly Cloudy
2:50 PM 39.2 °F 30.2 °F 14.0 °F 36% 30.57 in - NNE 17.3 mph - N/A   Clear
3:20 PM 39.2 °F 30.8 °F 14.0 °F 36% 30.57 in - NNE 15.0 mph - N/A   Clear
3:50 PM 39.2 °F 30.5 °F 12.2 °F 33% 30.57 in - NE 16.1 mph - N/A   Clear
4:20 PM 39.2 °F 30.5 °F 12.2 °F 33% 30.57 in - NNE 16.1 mph - N/A   Clear
4:50 PM 35.6 °F 29.9 °F 19.4 °F 52% 30.54 in - North 6.9 mph - N/A   Clear
5:20 PM 35.6 °F 31.7 °F 19.4 °F 52% 30.54 in - North 4.6 mph - N/A   Clear
5:50 PM 33.8 °F 30.8 °F 19.4 °F 56% 30.57 in - Variable 3.5 mph - N/A   Clear
6:20 PM 32.0 °F 28.7 °F 19.4 °F 60% 30.57 in - Variable 3.5 mph - N/A   Clear
6:50 PM 30.2 °F 26.7 °F 14.0 °F 51% 30.57 in - Variable 3.5 mph - N/A   Clear
7:20 PM 30.2 °F 26.7 °F 14.0 °F 51% 30.57 in - Variable 3.5 mph - N/A   Clear
7:50 PM 32.0 °F 28.7 °F 8.6 °F 38% 30.54 in 6.2 mi Variable 3.5 mph - N/A   Scattered Clouds
8:00 PM 33 °F - 8 °F 22% 30.55 in 6 mi 3.5 mph - -   Scattered Clouds
8:50 PM 33.8 °F 23.5 °F 19.4 °F 56% 30.54 in 6.2 mi North 16.1 mph - N/A   Scattered Clouds
9:20 PM 33.8 °F 23.5 °F 19.4 °F 56% 30.54 in 6.2 mi NNE 16.1 mph - N/A   Partly Cloudy
9:50 PM 32.0 °F 23.0 °F 19.4 °F 60% 30.51 in 6.2 mi ESE 11.5 mph - N/A   Partly Cloudy
10:20 PM 32.0 °F 24.2 °F 19.4 °F 60% 30.51 in 6.2 mi East 9.2 mph - N/A   Partly Cloudy
10:50 PM 30.2 °F 20.8 °F 21.2 °F 69% 30.51 in 6.2 mi East 11.5 mph - N/A   Scattered Clouds
11:20 PM 30.2 °F 21.9 °F 21.2 °F 69% 30.51 in 6.2 mi East 9.2 mph - N/A   Scattered Clouds
11:50 PM 30.2 °F 21.9 °F 21.2 °F 69% 30.48 in 6.2 mi East 9.2 mph - N/A   Scattered Clouds